Weather observations for the past three days for
Giddings, Giddings-Lee County Airport
Imperial (Metric)
Date Time (cdt) Wind (mph) Vis. (mi.) Weather Sky Cond. Temperature (ºF) Relative Humidity Wind Chill (°F) Heat Index (°F) Pressure Precipitation (in)
Air Dwpt 6 hour altimeter (in) sea level (mb) 1 hr 3 hr 6 hr
Max. Min.
25 09:55 S 5 0.00 Partly Cloudy SCT015 SCT037 84.6 76.1 76% 94 30.01 0.0 0.03 0.03
25 09:35 Calm 10.00 Mostly Cloudy SCT013 SCT018 BKN027 83.1 75.9 79% 91 30.01 0.0
25 09:15 Calm 10.00 Overcast BKN011 BKN018 OVC039 82.4 77 84% 91 30.01 0.0
25 08:55 Calm 0.00 Overcast BKN009 OVC015 81.9 77.2 86% 90 30.01 0.0
25 08:35 Calm 0.00 Mostly Cloudy BKN005 80.4 77.5 91% 87 30.01 0.0
25 08:15 Calm 0.00 Overcast OVC003 79.2 77.4 94% 84 30 0.0
25 07:55 Calm 0.00 Overcast OVC003 78.4 77.2 96% 82 30 0.0
25 07:35 Calm 0.00 Overcast OVC003 77.9 76.6 96% 80 30 0.0
25 07:15 Calm 0.00 Overcast OVC003 77.2 76.1 96% 78 29.99 0.0
25 06:55 Calm 0.00 Overcast OVC003 77.2 76.1 79.9 76.6 96% 78 29.99 0.0
25 06:35 Calm 0.00 Overcast OVC003 77 76.1 97% 78 29.99 0.0
25 06:15 Calm 0.00 Overcast OVC003 77 75.7 96% 78 29.98 0.0
25 05:55 Calm 0.00 Mostly Cloudy BKN003 BKN017 76.8 75.6 96% 77 29.98 0.0
25 05:35 Calm 0.00 NULL NULL 77 75.6 95% 78 29.98 0.0
25 05:15 Calm 0.00 NULL NULL 77 75.4 95% 78 29.97 0.0
25 04:55 Calm 0.00 NULL NULL 77.4 75.7 95% 79 29.97 0.0
25 04:35 Calm 0.00 Mostly Cloudy BKN010 BKN018 77.9 76.1 94% 80 29.97 0.0
25 04:15 Calm 0.00 Mostly Cloudy BKN010 77.9 76.1 94% 80 29.97 0.0
25 03:55 Calm 0.00 NULL NULL 77.9 75.9 94% 80 29.97 0.0
25 03:35 Calm 0.00 NULL NULL 77.9 75.9 94% 80 29.97 0.0
25 03:15 Calm 0.00 NULL NULL 78.1 75.7 93% 81 29.97 0.0
25 02:55 Calm 0.00 NULL NULL 78.3 75.7 92% 81 29.97 0.0
25 02:35 Calm 0.00 NULL NULL 78.8 76.1 91% 83 29.97 0.0
25 02:15 Calm 0.00 NULL NULL 78.8 75.9 91% 83 29.97 0.0
25 01:55 Calm 0.00 NULL NULL 79.3 76.1 90% 84 29.97 0.0
25 01:35 Calm 0.00 NULL NULL 79.7 75.9 88% 85 29.97 0.0
25 01:15 Calm 0.00 NULL NULL 79.9 76.1 88% 85 29.97 0.0
25 00:55 Calm 0.00 NULL NULL 80.1 75.9 90.3 80.1 87% 85 29.97 0.0
25 00:35 Calm 0.00 Fair CLR 80.6 75.9 86% 87 29.97 0.0
25 00:15 Calm 0.00 Fair CLR 81 75.7 84% 87 29.97 0.0
24 23:55 Calm 0.00 Fair CLR 81.5 76.1 84% 88 29.96 0.0
24 23:35 Calm 0.00 Fair CLR 81.5 76.5 85% 89 29.96 0.0
24 23:15 Calm 0.00 Fair CLR 81.9 76.5 84% 89 29.96 0.0
24 22:55 Calm 0.00 Fair CLR 82.4 76.5 82% 90 29.95 0.0
24 22:35 Calm 0.00 Fair CLR 82.8 76.5 81% 91 29.95 0.0
24 22:15 Calm 0.00 Partly Cloudy SCT036 83.3 76.5 80% 92 29.94 0.0
24 21:55 Calm 0.00 Fair CLR 83.3 76.5 80% 92 29.94 0.0
24 21:35 Calm 0.00 Fair CLR 83.7 76.5 79% 93 29.93 0.0
24 21:15 Calm 0.00 Fair CLR 83.8 76.6 79% 93 29.93 0.0
24 20:55 Calm 0.00 Fair CLR 84.6 76.6 77% 94 29.92 0.0
24 20:35 Calm 0.00 Fair CLR 85.6 76.6 75% 96 29.92 0.0
24 20:15 Calm 0.00 Fair CLR 87.1 76.5 71% 98 29.92 0.0
24 19:55 Calm 0.00 Fair CLR 88.3 76.3 68% 100 29.92 0.0
24 19:35 Calm 0.00 Partly Cloudy SCT033 89.1 76.3 66% 101 29.92 0.0
24 19:15 Calm 0.00 Partly Cloudy SCT033 89.8 76.5 65% 102 29.92 0.0
24 18:55 Calm 0.00 Fair CLR 90.3 75.9 91.8 88 63% 102 29.92 0.0
24 18:35 Calm 0.00 Fair CLR 90.9 75.6 61% 102 29.92 0.0
24 18:15 Calm 0.00 Partly Cloudy SCT055 91 75.2 60% 102 29.92 0.0
24 17:55 Calm 0.00 Partly Cloudy SCT055 88.7 77.2 69% 101 29.93 0.0
24 17:35 Calm 0.00 Fair CLR 91.4 77.4 64% 106 29.93 0.0
24 17:15 Calm 0.00 Partly Cloudy SCT075 SCT095 91 77.4 64% 105 29.93 0.0
24 16:55 Calm 0.00 Partly Cloudy SCT050 SCT075 SCT095 88.5 77 69% 101 29.94 0.0
24 16:35 Calm 0.00 Mostly Cloudy SCT030 SCT042 BKN070 88 76.8 70% 100 29.94 0.0
24 16:15 Calm 0.00 Partly Cloudy SCT042 SCT060 SCT070 91.4 76.1 61% 104 29.95 0.0
24 15:55 Calm 0.00 Mostly Cloudy SCT035 SCT046 BKN060 89.4 76.3 65% 101 29.95 0.0
24 15:35 Calm 0.00 Mostly Cloudy SCT037 SCT049 BKN060 91.4 76.5 62% 104 29.96 0.0
24 15:15 Calm 0.00 Partly Cloudy SCT039 SCT049 SCT055 91.6 75.2 59% 103 29.97 0.0
24 14:55 Calm 0.00 Partly Cloudy SCT039 SCT046 90.9 75.4 61% 102 29.97 0.0
24 14:35 Calm 0.00 Partly Cloudy SCT038 SCT046 90.9 75.4 61% 102 29.98 0.0
24 14:15 Calm 0.00 Partly Cloudy SCT036 90.5 75.2 61% 101 29.98 0.0
24 13:55 Calm 0.00 Mostly Cloudy SCT036 BKN050 90.1 74.7 60% 100 29.99 0.0
24 13:35 Calm 0.00 Mostly Cloudy SCT034 BKN050 89.6 75 62% 100 30 0.0
24 13:15 Calm 0.00 Mostly Cloudy BKN032 BKN043 89.6 75.2 63% 100 30 0.0
24 12:55 Calm 0.00 Partly Cloudy SCT032 SCT043 SCT050 88.9 75.4 88.9 75.7 64% 99 30.01 0.0
24 12:35 Calm 0.00 Partly Cloudy SCT027 SCT035 SCT040 88.7 75.4 65% 99 30.01 0.0
24 12:15 Calm 0.00 Mostly Cloudy SCT027 BKN035 BKN045 88.2 75.6 66% 99 30.02 0.0
24 11:55 Calm 0.00 Partly Cloudy SCT027 SCT045 86.7 75.2 69% 96 30.02 0.0
24 11:35 Calm 0.00 Mostly Cloudy BKN043 86.4 74.7 68% 95 30.02 0.0
24 11:15 Calm 0.00 Mostly Cloudy SCT023 SCT034 BKN040 85.6 75.2 71% 95 30.02 0.0
24 10:55 Calm 0.00 Mostly Cloudy SCT023 BKN032 84.7 74.8 72% 93 30.03 0.0
24 10:35 Calm 0.00 Partly Cloudy SCT021 85.6 75.9 73% 95 30.02 0.0
24 10:15 Calm 0.00 Partly Cloudy SCT019 85.1 75.7 74% 94 30.03 0.0
24 09:55 Calm 0.00 Partly Cloudy SCT016 84 75.6 76% 92 30.02 0.0
24 09:35 Calm 0.00 Fair CLR 82.6 75.7 80% 90 30.03 0.0
24 09:15 Calm 0.00 Partly Cloudy SCT012 80.6 75.2 84% 86 30.03 0.0
24 08:55 Calm 0.00 Mostly Cloudy BKN009 79.7 75.9 88% 85 30.02 0.0
24 08:35 Calm 0.00 NULL NULL 79 76.8 93% 83 30.01 0.0
24 08:15 Calm 0.00 NULL NULL 77.9 76.8 97% 80 30 0.0
24 07:55 Calm 0.00 Mostly Cloudy BKN002 BKN007 77.7 76.8 97% 80 30 0.0
24 07:35 Calm 0.00 Overcast OVC004 77.2 76.3 97% 78 30 0.0
24 07:15 Calm 0.00 Overcast OVC006 76.1 75.4 98% 75 29.99 0.0
24 06:55 Calm 0.00 Overcast OVC008 75.9 75 79.9 75.2 97% 75 29.98 0.0
24 06:35 Calm 0.00 Overcast OVC010 75.6 74.7 97% 74 29.98 0.0
24 06:15 Calm 0.00 NULL NULL 76.1 75.2 97% 75 29.98 0.0
24 05:55 Calm 0.00 NULL NULL 76.1 75.2 97% 75 29.98 0.0
24 05:35 Calm 0.00 NULL NULL 76.1 75 96% 76 29.97 0.0
24 05:15 Calm 0.00 Mostly Cloudy BKN015 76.8 75.6 96% 77 29.97 0.0
24 04:55 Calm 0.00 Mostly Cloudy BKN015 76.8 75.6 96% 77 29.97 0.0
24 04:35 Calm 0.00 NULL NULL 76.6 75.2 95% 77 29.97 0.0
24 04:15 Calm 0.00 NULL NULL 77.2 75.9 96% 78 29.97 0.0
24 03:55 Calm 0.00 NULL NULL 77 75.7 96% 78 29.97 0.0
24 03:35 Calm 0.00 NULL NULL 77 75.4 95% 78 29.98 0.0
24 03:15 Calm 0.00 NULL NULL 77.7 75.9 94% 80 29.98 0.0
24 02:55 Calm 0.00 NULL NULL 77.5 75.7 94% 79 29.98 0.0
24 02:35 Calm 0.00 NULL NULL 77.9 75.6 93% 80 29.98 0.0
24 02:15 Calm 0.00 NULL NULL 78.4 76.3 93% 82 29.98 0.0
24 01:55 Calm 0.00 NULL NULL 78.3 75.9 93% 81 29.98 0.0
24 01:35 Calm 0.00 NULL NULL 78.6 75.9 91% 82 29.98 0.0
24 01:15 Calm 0.00 NULL NULL 79.3 76.1 90% 84 29.98 0.0
24 00:55 Calm 0.00 NULL NULL 79.9 76.1 90.9 79.2 88% 85 29.99 0.0
24 00:35 Calm 0.00 NULL NULL 79.5 76.1 89% 84 29.99 0.0
24 00:15 Calm 0.00 NULL NULL 79.3 76.3 90% 84 29.99 0.0
23 23:55 Calm 0.00 Fair CLR 81.1 76.3 85% 88 29.99 0.0
23 23:35 Calm 0.00 Fair CLR 81 76.3 86% 87 29.99 0.0
23 23:15 Calm 0.00 Fair CLR 81.5 76.3 84% 89 29.98 0.0
23 22:55 Calm 0.00 Fair CLR 81.9 76.5 84% 89 29.98 0.0
23 22:35 Calm 0.00 Partly Cloudy SCT045 82.4 76.5 82% 90 29.98 0.0
23 22:15 Calm 0.00 Partly Cloudy SCT047 SCT050 83.1 76.5 80% 92 29.97 0.0
23 21:55 Calm 0.00 Mostly Cloudy BKN047 BKN050 83.7 76.1 78% 92 29.96 0.0
23 21:35 Calm 0.00 Mostly Cloudy SCT039 SCT045 BKN060 84.2 75.7 76% 93 29.95 0.0
23 21:15 Calm 0.00 Mostly Cloudy BKN044 BKN060 85.1 75.2 72% 94 29.95 0.0
23 20:55 Calm 0.00 Overcast BKN048 OVC050 84.2 75.6 75% 93 29.94 0.0
23 20:35 Calm 0.00 Mostly Cloudy BKN050 86 74.3 68% 94 29.94 0.0
23 19:55 Calm 0.00 Fair CLR 88.5 72.7 60% 96 29.94 0.0
23 18:35 Calm 0.00 Fair CLR 91.4 72 53% 99 29.93 0.0
23 18:15 Calm 0.00 Fair CLR 91.6 73 55% 100 29.93 0.0
23 17:55 Calm 0.00 Fair CLR 91.6 72 53% 99 29.94 0.0
23 17:35 Calm 0.00 Fair CLR 91.4 70.9 51% 98 29.94 0.0
23 16:55 Calm 0.00 Partly Cloudy SCT047 91.8 72.3 53% 100 29.96 0.0
23 16:35 Calm 0.00 Fair CLR 91.9 71.6 52% 99 29.96 0.0
23 16:15 Calm 0.00 Fair CLR 90 70.9 54% 96 29.97 0.0
23 15:55 Calm 0.00 Partly Cloudy SCT044 SCT055 91.2 71.2 52% 98 29.97 0.0
23 15:35 Calm 0.00 Mostly Cloudy BKN042 BKN055 91 72.9 55% 99 29.98 0.0
23 15:15 Calm 0.00 Mostly Cloudy SCT042 BKN055 91 72.9 55% 99 29.99 0.0
23 14:55 Calm 0.00 Partly Cloudy SCT040 SCT050 89.8 72.9 58% 98 29.99 0.0
23 14:35 Calm 0.00 Partly Cloudy SCT040 SCT050 89.6 73 58% 98 30 0.0
23 14:15 Calm 0.00 Partly Cloudy SCT041 88.9 71.8 57% 96 30 0.0
23 13:55 Calm 0.00 Partly Cloudy SCT039 88.9 72.3 58% 96 30.01 0.0
23 13:35 Calm 0.00 Partly Cloudy SCT037 87.8 71.6 59% 94 30.02 0.0
23 13:15 Calm 0.00 Partly Cloudy SCT037 88.9 71.8 57% 96 30.02 0.0
23 12:55 Calm 0.00 Fair CLR 87.8 71.6 87.8 71.6 59% 94 30.03 0.0
23 12:35 Calm 0.00 Fair CLR 87.1 72.5 62% 94 30.03 0.0
23 12:15 Calm 0.00 Fair CLR 86.4 72 62% 93 30.04 0.0
23 11:55 Calm 0.00 Fair CLR 85.5 72.3 65% 92 30.04 0.0
23 11:35 Calm 0.00 Fair CLR 85.3 71.1 63% 91 30.04 0.0
23 11:15 Calm 0.00 Fair CLR 84.9 70.9 63% 90 30.04 0.0
23 10:55 Calm 0.00 Fair CLR 83.8 70.9 65% 89 30.05 0.0
23 10:35 Calm 0.00 Fair CLR 82.9 71.1 67% 88 30.05 0.0
23 10:15 Calm 0.00 Fair CLR 82.4 69.8 66% 86 30.05 0.0
23 09:55 Calm 0.00 Fair CLR 81.1 71.8 73% 85 30.05 0.0
23 09:35 Calm 0.00 Fair CLR 80.6 72.3 76% 85 30.05 0.0
23 09:15 Calm 0.00 Fair CLR 79.3 72.3 79% 83 30.05 0.0
23 08:55 Calm 0.00 Fair CLR 78.3 72.3 82% 81 30.05 0.0
23 08:35 Calm 0.00 Fair CLR 78.3 72.7 83% 81 30.05 0.0
23 08:15 Calm 0.00 Fair CLR 77.9 72.7 84% 80 30.05 0.0
23 07:55 Calm 0.00 NULL NULL 75.9 72 88% 76 30.05 0.0
23 07:35 Calm 0.00 NULL NULL 73.9 72.1 94% 30.04 0.0
23 07:15 Calm 0.00 NULL NULL 72.1 70.5 95% 30.04 0.0
23 06:55 Calm 0.00 NULL NULL 71.6 70.2 77 70.7 95% 30.03 0.0
23 06:35 Calm 0.00 NULL NULL 70.9 69.8 96% 30.02 0.0
23 06:15 Calm 0.00 NULL NULL 71.1 69.8 96% 30.02 0.0
23 05:55 Calm 0.00 NULL NULL 71.1 69.6 95% 30.02 0.0
23 05:35 Calm 0.00 NULL NULL 71.8 70 94% 30.02 0.0
23 05:15 Calm 0.00 NULL NULL 72 70 94% 30.01 0.0
23 04:55 Calm 0.00 NULL NULL 72 70 94% 30.01 0.0
23 04:35 Calm 0.00 NULL NULL 73.2 70.7 92% 30.01 0.0
23 04:15 Calm 0.00 NULL NULL 72.7 70.2 92% 30.01 0.0
23 03:55 Calm 0.00 NULL NULL 74.5 70.7 88% 30.01 0.0
23 03:35 Calm 0.00 NULL NULL 73.4 70.7 91% 30.02 0.0
23 03:15 Calm 0.00 NULL NULL 74.3 70.7 89% 30.02 0.0
23 02:55 Calm 0.00 NULL NULL 74.7 70.7 88% 30.02 0.0
23 02:35 Calm 0.00 NULL NULL 74.7 70.7 88% 30.03 0.0
23 02:15 Calm 0.00 Fair CLR 76.1 70.7 83% 77 30.04 0.0
23 01:55 Calm 0.00 Fair CLR 76.1 70.7 83% 77 30.04 0.0
23 01:35 Calm 0.00 Fair CLR 76.1 70.7 83% 77 30.05 0.0
23 01:15 Calm 0.00 Fair CLR 76.3 70.7 83% 77 30.05 0.0
23 00:55 Calm 0.00 Fair CLR 77 70.9 89.6 77 81% 79 30.06 0.0
23 00:35 Calm 0.00 Fair CLR 77.4 71.1 81% 79 30.05 0.0
23 00:15 Calm 0.00 Fair CLR 77.9 71.1 80% 80 30.06 0.0
22 23:55 Calm 0.00 Fair CLR 78.4 71.2 79% 81 30.06 0.0
22 23:35 Calm 0.00 Fair CLR 78.8 71.6 79% 82 30.05 0.0
22 23:15 Calm 0.00 Fair CLR 79 72 79% 82 30.05 0.0
22 22:55 Calm 0.00 Fair CLR 79.3 72.9 81% 83 30.05 0.0
22 22:35 Calm 0.00 Fair CLR 79.3 73.4 82% 83 30.04 0.0
22 22:15 Calm 0.00 Fair CLR 79.2 74.1 85% 83 30.04 0.0
22 21:55 Calm 0.00 NULL NULL 79.3 74.7 86% 83 30.03 0.0
22 21:35 Calm 0.00 Fair CLR 80.1 74.5 83% 85 30.02 0.0
22 21:15 Calm 0.00 Fair CLR 81.5 74.7 80% 88 30.01 0.0
22 20:55 Calm 0.00 Fair CLR 82.6 74.5 77% 89 30.01 0.0
22 20:35 Calm 0.00 Fair CLR 84.4 73.8 71% 91 30 0.0
22 20:15 Calm 0.00 Fair CLR 85.6 73.8 68% 93 30 0.0
22 19:55 Calm 0.00 Fair CLR 86.9 72.9 63% 94 30 0.0
22 19:35 Calm 0.00 Fair CLR 87.8 72.7 61% 95 30 0.0
22 19:15 Calm 0.00 Fair CLR 87.8 72 59% 94 30 0.0
22 18:55 Calm 0.00 Partly Cloudy SCT045 89.6 72.1 91.4 88 56% 97 30 0.0
22 18:35 Calm 0.00 Partly Cloudy SCT045 89.8 71.2 54% 96 30 0.0
22 18:15 Calm 0.00 Fair CLR 89.4 70.9 54% 96 30 0.0
22 17:55 Calm 0.00 Partly Cloudy SCT048 SCT080 90.7 70.7 52% 97 30 0.0
22 17:35 Calm 0.00 Fair CLR 90.9 71.8 54% 98 30 0.0
22 17:15 Calm 0.00 Fair CLR 90.9 71.6 53% 98 30.01 0.0
22 16:55 Calm 0.00 Fair CLR 91.2 72.1 54% 99 30.02 0.0
22 16:35 Calm 0.00 Partly Cloudy SCT048 91.2 72 53% 99 30.03 0.0
22 16:15 Calm 0.00 Partly Cloudy SCT047 SCT075 90 71.8 55% 97 30.03 0.0
22 15:55 Calm 0.00 Partly Cloudy SCT045 SCT050 SCT075 89.8 71.4 55% 96 30.04 0.0
22 15:35 Calm 0.00 Partly Cloudy SCT043 SCT049 SCT060 90.7 71.4 53% 98 30.04 0.0
22 15:15 Calm 0.00 Partly Cloudy SCT043 90 70.9 54% 96 30.05 0.0
22 14:55 Calm 0.00 Partly Cloudy SCT043 SCT050 SCT060 88.9 71.6 57% 95 30.06 0.0
22 14:35 Calm 0.00 Mostly Cloudy SCT045 BKN055 89.2 72 57% 96 30.07 0.0
22 14:15 Calm 0.00 Partly Cloudy SCT045 90 71.4 55% 97 30.07 0.0
22 13:55 Calm 0.00 Partly Cloudy SCT041 89.6 71.4 55% 96 30.07 0.0
22 13:35 Calm 0.00 Partly Cloudy SCT042 89.2 71.8 56% 96 30.08 0.0
22 13:15 Calm 0.00 Partly Cloudy SCT043 88.9 70.7 55% 95 30.08 0.0
22 12:55 Calm 0.00 Partly Cloudy SCT043 88 70.7 88 72.9 57% 94 30.09 0.0
22 12:35 Calm 0.00 Fair CLR 88 71.2 58% 94 30.09 0.0
22 12:15 Calm 0.00 Fair CLR 87.3 70.7 58% 93 30.1 0.0
22 11:55 Calm 0.00 Partly Cloudy SCT032 86.9 71.8 61% 93 30.1 0.0
22 11:35 Calm 0.00 Fair CLR 85.8 72 63% 92 30.11 0.0
22 11:15 Calm 0.00 Partly Cloudy SCT025 85.6 71.8 63% 92 30.12 0.0
22 10:55 Calm 0.00 Partly Cloudy SCT025 84.6 72.5 67% 91 30.12 0.0
22 10:35 Calm 0.00 Partly Cloudy SCT023 84.4 73 69% 91 30.12 0.0
22 10:15 Calm 0.00 Partly Cloudy SCT019 83.7 74.1 73% 91 30.12 0.0
Date Time (cdt) Wind (mph) Vis. (mi.) Weather Sky Cond. Air Dwpt Max. Min. Relative Humidity Wind Chill (°F) Heat Index (°F) altimeter (in) sea level (mb) 1 hr 3 hr 6 hr
6 hour
Temperature (ºF) Pressure Precipitation (in)